STARLINK-11326, 62010

Orbit data source: Space-Track

STARLINK-11326, 62010 is a payload satellite owned by SpaceX/Seattle (US) in LEO that was launched on Mon, 18 Nov 2024 UTC via an FALCON 9 launch vehicle from the Air Force Western Test Range (AFWTR). Payload-class satellites include a variety of spacecraft equipped with specific instruments for various scientific and technological missions. These include communications satellites like Starlink; space stations such as the ISS; scientific satellites like the Hubble; Earth observation satellites from companies like Planet Labs, Umbra, and HawkEye 360; GPS; miniature CubeSats for education and research; and military/defense satellites.

Loading next visibility...
Identifier
62010, 2024-213C
Orbit
LEO
Country
Flag of USUS
Related business
Manufacturer
SpaceX/Seattle
Mission
Operational Commercial Communications
Bus & Motor
STARLINK V2M, Unknown motor
Mass
730 kg wet, ~700 kg dry
Launch date (UTC)
2024-11-18 (9 months ago)
Launch vehicle
FALCON 9
Launch site
Air Force Western Test Range (AFWTR)
Object type
Payload
Rocket body
Debris
Shape & HBR
Box + 2 Pan, 14.5 m
Radar Cross Section
36.964 m², Large (>1 m²)

Expand to show TLE details & history
Last TLE update: 7 hours ago

TLE from 7 hours ago
0 STARLINK-11326
1 62010U 24213C   25242.23105622  .00129622  00000-0  10567-2 0  9990
2 62010  53.1578 265.1386 0000889  45.2829 314.8261 15.69742146 44846
Epoch: 2025-08-30T05:32Z
TLE epoch observation values (Epoch: 2025-08-30T05:32:43.257Z)
Latitude
-0.00003°
Longitude
-156.70999°
Altitude
360.127 km
Speed
7.695 km/s
True Right ascension
17h 40m 33s
True Declination
0° 00' 00"
Sunlit
Object was in daylight at epoch
Visualization orbit readout
Latitude
Unknown
Longitude
Unknown
Altitude
Unknown
Speed
Unknown
Apparent Right ascension
Unknown
Apparent Declination
Unknown
Sunlit
N/A
Visualization observer readout
Local Sidereal Time
04:16:20
Azimuth
Unknown
Elevation
Unknown
Doppler factor
Unknown
Orbital elements
Apogee altitude
360.495 km
Perigee altitude
359.297 km
Semi-major axis
6,738.033 km
Eccentricity
0.00009
Inclination
53.1578°
RAAN
265.1386°
Arg. of periapsis
45.2829°
True anomaly
314.81887°
Mean anomaly
314.8261°
Eccentric anomaly
314.82249°
Mean motion
3.92413 °/min
Orbital period
91.74 mins
BSTAR
0.0010567
Loading maneuver chart data...
Computing Atmospheric mass density...
Loading historical data...
Loading historical data...
Loading historical data...
Loading historical data...
Loading historical data...
Loading historical data...
Loading historical data...

Documentation

Showing up to 5 results
|